Andrews, TX

8:38 AM CST on November 18, 2017 (GMT -0600)
Andrews

Weather History for KE11 - March, 2013

Change the Weather History Date:

Friday, March 15, 2013

  Actual Average (KMAF) Record (KMAF)
Temperature  
Mean Temperature 68 °F -  
Max Temperature 86 °F 66 °F 88 °F (1974)
Min Temperature 51 °F 40 °F 22 °F (1962)
Cooling Degree Days 4    
Growing Degree Days 18 (Base 50)    
Moisture  
Dew Point 27 °F    
Average Humidity 27    
Maximum Humidity 52    
Minimum Humidity 7    
Precipitation  
Precipitation 0.00 in - - ()
Sea Level Pressure  
Sea Level Pressure 30.04 in    
Wind  
Wind Speed 13 mph (SW)    
Max Wind Speed 21 mph    
Max Gust Speed 30 mph    
Visibility 10 miles    
Events      
Averages and records for this station are not official NWS values.
T = Trace of Precipitation, MM = Missing Value Source: NWS Daily Summary

Daily Weather History Graph

Daily Weather History Graph

Search for Another Location

Airport or City:

Trip Planner

Search our weather history database for the weather conditions in past years. The results will help you decide how hot, cold, wet, or windy it might be!

Date:

Astronomy

Mar. 15, 2013 Rise Set
Actual Time 7:59 AM CDT 7:58 PM CDT
Civil Twilight 7:35 AM CDT 8:22 PM CDT
Nautical Twilight 7:07 AM CDT 8:51 PM CDT
Astronomical Twilight 6:38 AM CDT 9:19 PM CDT
Moon 10:06 AM CDT (3/15) 11:57 PM CDT (3/15)
Length of Visible Light 12h 47m
Length of Day
11h 58m
Waxing Crescent, 15% of the Moon is Illuminated
Mar 15
Waxing Crescent
Mar 19
First Quarter
Mar 27
Full
Apr 2
Last Quarter
Apr 10
New

Hourly Weather History & Observations

Time (CDT) Temp. Dew Point Humidity Pressure Visibility Wind Dir Wind Speed Gust Speed Precip Events Conditions
12:15 AM 61.3 °F 35.2 °F 38% 30.17 in 10.0 mi SSW 15.0 mph - N/A   Clear
12:35 AM 60.8 °F 35.6 °F 39% 30.17 in 10.0 mi SSW 13.8 mph - N/A   Clear
12:55 AM 60.3 °F 35.6 °F 40% 30.17 in 10.0 mi SSW 13.8 mph - N/A   Clear
1:15 AM 60.1 °F 35.6 °F 40% 30.17 in 10.0 mi SSW 15.0 mph 21.9 mph N/A   Clear
1:35 AM 59.5 °F 35.4 °F 41% 30.17 in 10.0 mi SSW 15.0 mph - N/A   Clear
2:15 AM 58.8 °F 35.6 °F 42% 30.16 in 10.0 mi SSW 16.1 mph 20.7 mph N/A   Clear
2:35 AM 58.5 °F 35.6 °F 42% 30.16 in 10.0 mi SSW 16.1 mph - N/A   Clear
2:55 AM 58.1 °F 35.6 °F 43% 30.16 in 10.0 mi SSW 13.8 mph - N/A   Clear
3:15 AM 57.2 °F 35.6 °F 44% 30.15 in 10.0 mi SSW 12.7 mph - N/A   Clear
3:35 AM 56.7 °F 35.8 °F 46% 30.14 in 10.0 mi SSW 12.7 mph - N/A   Clear
3:55 AM 55.8 °F 35.8 °F 47% 30.14 in 10.0 mi SSW 12.7 mph - N/A   Clear
4:15 AM 55.4 °F 35.6 °F 47% 30.14 in 10.0 mi SSW 10.4 mph - N/A   Clear
4:35 AM 54.9 °F 35.6 °F 48% 30.13 in 10.0 mi SSW 11.5 mph - N/A   Clear
4:55 AM 54.5 °F 35.4 °F 49% 30.12 in 10.0 mi SSW 12.7 mph 17.3 mph N/A   Clear
5:15 AM 53.6 °F 35.1 °F 50% 30.12 in 10.0 mi SW 10.4 mph - N/A   Clear
5:35 AM 53.6 °F 35.1 °F 50% 30.12 in 10.0 mi SSW 10.4 mph - N/A   Clear
5:55 AM 52.7 °F 34.7 °F 50% 30.12 in 10.0 mi SSW 9.2 mph - N/A   Clear
6:15 AM 52.9 °F 34.9 °F 50% 30.12 in 10.0 mi SSW 10.4 mph - N/A   Clear
6:35 AM 52.5 °F 34.5 °F 50% 30.12 in 10.0 mi SSW 10.4 mph 16.1 mph N/A   Clear
6:55 AM 52.7 °F 34.2 °F 49% 30.12 in 10.0 mi SSW 11.5 mph - N/A   Clear
7:15 AM 52.7 °F 34.0 °F 49% 30.12 in 10.0 mi SSW 13.8 mph - N/A   Clear
7:35 AM 52.3 °F 34.0 °F 50% 30.12 in 10.0 mi SW 11.5 mph - N/A   Clear
7:55 AM 51.4 °F 33.8 °F 51% 30.12 in 10.0 mi SW 10.4 mph - N/A   Clear
8:15 AM 51.1 °F 33.8 °F 52% 30.12 in 10.0 mi SW 10.4 mph - N/A   Clear
8:35 AM 52.0 °F 33.8 °F 50% 30.12 in 10.0 mi SW 10.4 mph - N/A   Clear
8:55 AM 53.6 °F 34.0 °F 47% 30.12 in 10.0 mi SW 11.5 mph - N/A   Clear
9:15 AM 55.6 °F 34.2 °F 44% 30.12 in 10.0 mi SW 11.5 mph - N/A   Clear
9:35 AM 58.6 °F 34.2 °F 40% 30.12 in 10.0 mi SW 10.4 mph - N/A   Clear
10:55 AM 70.9 °F 29.7 °F 22% 30.10 in 10.0 mi SW 10.4 mph - N/A   Clear
11:15 AM 74.1 °F 26.4 °F 17% 30.10 in 10.0 mi WSW 9.2 mph - N/A   Clear
11:35 AM 76.1 °F 22.8 °F 14% 30.10 in 10.0 mi SW 12.7 mph 17.3 mph N/A   Clear
11:55 AM 76.6 °F 22.8 °F 13% 30.10 in 10.0 mi WSW 10.4 mph 18.4 mph N/A   Clear
12:15 PM 78.1 °F 21.6 °F 12% 30.09 in 10.0 mi SW 12.7 mph - N/A   Clear
12:55 PM 80.1 °F 19.2 °F 10% 30.07 in 10.0 mi North - - N/A   Clear
1:15 PM 81.7 °F 19.2 °F 10% 30.06 in 10.0 mi WSW 12.7 mph 19.6 mph N/A   Clear
1:35 PM 82.9 °F 18.5 °F 9% 30.05 in 10.0 mi SW 12.7 mph 19.6 mph N/A   Clear
1:55 PM 83.7 °F 17.4 °F 9% 30.03 in 10.0 mi SW 17.3 mph - N/A   Clear
2:15 PM 84.0 °F 17.4 °F 8% 30.02 in 10.0 mi WSW 11.5 mph 17.3 mph N/A   Clear
2:35 PM 84.6 °F 17.6 °F 8% 30.01 in 10.0 mi West 13.8 mph - N/A   Clear
2:55 PM 85.5 °F 19.2 °F 9% 29.99 in 10.0 mi WSW 13.8 mph 19.6 mph N/A   Clear
3:15 PM 84.7 °F 18.0 °F 8% 29.98 in 10.0 mi WSW 15.0 mph 24.2 mph N/A   Clear
3:35 PM 85.5 °F 17.6 °F 8% 29.97 in 10.0 mi West 15.0 mph 20.7 mph N/A   Clear
3:55 PM 85.5 °F 17.6 °F 8% 29.96 in 10.0 mi West 15.0 mph 21.9 mph N/A   Clear
4:15 PM 86.5 °F 17.8 °F 8% 29.95 in 10.0 mi SW 17.3 mph 23.0 mph N/A   Clear
4:35 PM 86.4 °F 17.8 °F 8% 29.95 in 10.0 mi West 12.7 mph - N/A   Clear
4:55 PM 86.0 °F 16.7 °F 8% 29.94 in 10.0 mi West 12.7 mph 18.4 mph N/A   Clear
5:15 PM 85.5 °F 16.5 °F 8% 29.93 in 10.0 mi WSW 9.2 mph - N/A   Clear
5:35 PM 85.8 °F 15.6 °F 7% 29.93 in 10.0 mi WSW 15.0 mph 18.4 mph N/A   Clear
5:55 PM 86.0 °F 15.6 °F 7% 29.92 in 10.0 mi West 11.5 mph 18.4 mph N/A   Clear
6:15 PM 85.8 °F 15.4 °F 7% 29.91 in 10.0 mi SW 13.8 mph 21.9 mph N/A   Clear
6:35 PM 85.1 °F 16.2 °F 8% 29.91 in 10.0 mi SW 11.5 mph 16.1 mph N/A   Clear
6:55 PM 84.6 °F 16.3 °F 8% 29.91 in 10.0 mi SW 9.2 mph - N/A   Clear
7:15 PM 83.5 °F 15.6 °F 8% 29.91 in 10.0 mi SW 9.2 mph 12.7 mph N/A   Clear
7:35 PM 82.0 °F 15.4 °F 8% 29.91 in 10.0 mi SW 11.5 mph 17.3 mph N/A   Clear
7:55 PM 79.0 °F 15.6 °F 9% 29.90 in 10.0 mi SW 9.2 mph - N/A   Clear
8:15 PM 76.6 °F 16.3 °F 10% 29.91 in 10.0 mi SSW 9.2 mph - N/A   Clear
8:35 PM 73.9 °F 17.2 °F 12% 29.91 in 10.0 mi SSW 10.4 mph - N/A   Clear
8:55 PM 73.2 °F 17.4 °F 12% 29.91 in 10.0 mi SSW 10.4 mph - N/A   Clear
9:15 PM 72.3 °F 17.6 °F 13% 29.91 in 10.0 mi SSW 11.5 mph - N/A   Clear
9:35 PM 71.2 °F 20.3 °F 15% 29.91 in 10.0 mi South 17.3 mph 23.0 mph N/A   Clear
9:55 PM 69.3 °F 25.2 °F 19% 29.91 in 10.0 mi SSW 15.0 mph 18.4 mph N/A   Clear
10:15 PM 68.7 °F 27.9 °F 22% 29.91 in 10.0 mi SSW 13.8 mph 20.7 mph N/A   Clear
10:35 PM 68.2 °F 30.2 °F 24% 29.91 in 10.0 mi SSW 17.3 mph 21.9 mph N/A   Clear
10:55 PM 67.5 °F 32.0 °F 27% 29.91 in 10.0 mi SSW 17.3 mph 26.5 mph N/A   Clear
11:15 PM 66.7 °F 34.3 °F 30% 29.91 in 10.0 mi SSW 18.4 mph 24.2 mph N/A   Clear
11:35 PM 66.4 °F 36.1 °F 33% 29.91 in 10.0 mi SSW 20.7 mph 26.5 mph N/A   Clear
11:55 PM 65.8 °F 37.0 °F 35% 29.90 in 10.0 mi SSW 19.6 mph 29.9 mph N/A   Clear